Regional Weather Roundup
Issued by NWS

Home | Current Version | Previous Version | Text Only | Print | Product List | Glossary Off
Versions: 1 2 3 4 5 6 7 8 9 10 11 12 13 14 15 16 17 18 19 20 21 22 23 24 25 26 27

000
ASUS45 KBOU 160307
RWRCO

WEATHER ROUNDUP FOR COLORADO
NATIONAL WEATHER SERVICE DENVER/BOULDER CO
900 PM MDT SUN OCT 15 2017

NOTE: "FAIR" INDICATES FEW OR NO CLOUDS BELOW 12000 FEET WITH NO
SIGNIFICANT WEATHER AND/OR OBSTRUCTIONS TO VISIBILITY.

COZ001>005-013-030-031-160400-
...NORTHWEST COLORADO...

CITY           SKY/WX    TMP DP  RH WIND       PRES   REMARKS
CRAIG          FAIR      31  19  61 S3        30.49R
HAYDEN         FAIR      37  16  42 SW5       30.50R
MEEKER         FAIR      35  20  54 NE5       30.49R WCI  31
RABBIT EARS PA FAIR      36  10  35 W8G16     30.63R
STEAMBOAT SPGS FAIR      42  15  32 CALM      30.50S
WALDEN         FAIR      34   9  35 SE8       30.54S WCI  27
$$

COZ006>008-011-160400-
...WEST CENTRAL VALLEYS...

CITY           SKY/WX    TMP DP  RH WIND       PRES   REMARKS
GRAND JUNCTION FAIR      43  11  27 CALM      30.44R
MONTROSE       FAIR      41  19  41 SE7       30.50R
EAGLE          FAIR      39  19  44 E7        30.51R
RIFLE          FAIR      42  18  37 SE6       30.47R
DELTA          FAIR      46  13  25 NE7       30.47R
NUCLA          NOT AVBL
$$

COZ017>023-064>068-160400-
...SOUTHWEST COLORADO...

CITY           SKY/WX    TMP DP  RH WIND       PRES   REMARKS
DURANGO        FAIR      43  15  32 NE8       30.50R
CORTEZ         FAIR      36  18  48 E9        30.48R
PAGOSA SPRINGS FAIR      40  10  29 CALM      30.55R
TELLURIDE      FAIR      44   5  20 SE8       30.63S
WOLF CREEK PAS FAIR      36   0  21 SW10      30.79R
$$

COZ009-010-012-014-032>034-037-058>063-160400-
...CENTRAL COLORADO...

CITY           SKY/WX    TMP DP  RH WIND       PRES   REMARKS
ASPEN          FAIR      38  15  39 S9        30.54S
BUENA VISTA    FAIR      43   8  23 W8        30.52R
COPPER MTN     LGT SNOW  36   3  25 W14G20    30.70R
BERTHOUD PASS  FAIR      30  21  69 NW23      30.68S WCI  17
COTTONWOOD PAS FAIR      52  -4  10 NW3       30.61R
GUNNISON       FAIR      38  12  34 CALM      30.54R
KREMMLING      FAIR      37  19  48 CALM      30.53R
LEADVILLE      FAIR      34   0  23 NE6       30.60S WCI  29
SALIDA         NOT AVBL
SUNLIGHT       FAIR      36   1  23 SW8       30.70R
WILKERSON PASS FAIR      41  -9  11 NW9       30.69S
$$

COZ069>075-160400-
...SAN LUIS VALLEY/SANGRE DE CRISTO MOUNTAINS...

CITY           SKY/WX    TMP DP  RH WIND       PRES   REMARKS
ALAMOSA        FAIR      38  12  34 W7        30.51R
DEL NORTE      FAIR      38  12  33 W12       30.55R
LA VETA PASS   FAIR      45  -4  13 SW17G24   30.73S
SAGUACHE       FAIR      37  10  32 N7        30.54R
$$

COZ035-036-038>040-160400-
...NORTHERN COLORADO FRONT RANGE...

CITY           SKY/WX    TMP DP  RH WIND       PRES   REMARKS
DENVER INTL AP FAIR      49  20  31 W5        30.40S
DMNS CITY PARK   N/A     46  31  55 N5        30.41R
AURORA         CLEAR     46  25  44 W5        30.41S
FRONT RANGE AP CLEAR     46  21  36 CALM      30.40F
ERIE MUNI ARPT FAIR      39  31  73 CALM      30.46S
BOULDER MUN AP FAIR      45  32  61 CALM      30.41S
CENTENNIAL     FAIR      47  25  42 W6        30.42R
BROOMFIELD     CLEAR     50  27  40 NW8       30.42S
FORT COLLINS   FAIR      49  28  44 N5        30.41S
LONGMONT       FAIR      44  31  58 W3        30.43R
$$

COZ041-046-047-076>085-087-088-160400-
...PIKES PEAK/PALMER DIVIDE AND SOUTHERN FOOTHILLS...

CITY           SKY/WX    TMP DP  RH WIND       PRES   REMARKS
COLO. SPRINGS  FAIR      44  21  40 CALM      30.48R
A. F. ACADEMY  FAIR      34  20  55 N7        30.47S WCI  28
SCHRIEVER AFB  FAIR      43  17  34 MISG      30.47S
CHEYENNE MTN   FAIR      49  12  22 S6        30.43S
ELLICOTT       FAIR     N/A N/A N/A SE5       30.46S
FALCON         FAIR      40  18  40 SW6       30.50R
FORT CARSON    FAIR      48  19  31 SW8       30.45S
LIMON          FAIR      39  25  57 SE3       30.44R
MONUMENT HILL  NOT AVBL
CANON CITY     CLEAR     46  23  39 NW7       30.45S
WALSENBURG     FAIR      41  25  52 NW3       30.46R
TRINIDAD       FAIR      50  28  42 W8        30.44S
$$

COZ042>045-048>051-090-091-160400-
...NORTHEAST COLORADO...

CITY           SKY/WX    TMP DP  RH WIND       PRES   REMARKS
GREELEY ARPT   FAIR      38  30  73 NW8       30.41R
AKRON          FAIR      46  23  40 S9        30.40S
BURLINGTON     FAIR      45  27  49 S10       30.41S
WRAY           FAIR      45  27  49 CALM      30.38S
YUMA           NOT AVBL
STERLING       FAIR      39  30  70 SW5       30.37S
HOLYOKE        FAIR      41  30  65 SW5       30.38S
FORT MORGAN    FAIR      49  18  30 E6        30.40S
$$

COZ086-089-092>099-160400-
...SOUTHEAST COLORADO...

CITY           SKY/WX    TMP DP  RH WIND       PRES   REMARKS
PUEBLO         FAIR      45  23  42 CALM      30.42R
LA JUNTA       FAIR      48  29  47 CALM      30.39S
LAMAR          FAIR      43  27  53 NE6       30.39R
SPRINGFIELD      N/A     43  29  57 S10       30.42S
$$




USA.gov is the U.S. government's official web portal to all federal, state and local government web resources and services.